weather.gov     
National Weather Service

Regional Weather Roundup
NWS Homepage
This page is being discontinued on March 12, 2014.
The same data is available at this site. Please update your bookmarks.
Thank you, and we apologize for the inconvenience.
Please send an email to SR-SRH.Webmaster@noaa.gov with any concerns.


Current Version
Previous Version:    01  02  03  04  05  06  07  08  09  10  11  12  13  14  15  16  17  18  19  20  21  22  23  24  25  26  27  28  29  30  
   31  32  33  34  35  36  37  38  39  40  41  42  43  44  45  46  47  48  49  50  51  52  53  54  55  56  57  58  59  60  
[Printable]
490
ASCA42 TJSJ 230211
RWRPR
PUERTO RICO/U.S. VIRGIN ISLANDS HOURLY WEATHER ROUNDUP
NATIONAL WEATHER SERVICE SAN JUAN PR
1000 PM AST MON SEP 22 2014

PRZ001-004-230300-
PUERTO RICO

CITY           SKY/WX    TMP DP  RH WIND       PRES   REMARKS
SAN JUAN LMM   PTCLDY    79  75  89 CALM      29.94S
CEIBA          MOCLDY    79  77  94 W5        29.97S
$$

PRZ006-007-230300-
U.S. VIRGIN ISLANDS

CITY           SKY/WX    TMP DP  RH WIND       PRES   REMARKS
$$

HOURLY WEATHER ROUNDUP FOR THE NEWS MEDIA

CITY           SKY/WX    TMP DP  RH WIND       PRES   REMARKS
MIAMI          PTCLDY    77  72  84 N5        30.00S
ORLANDO        LGT RAIN  73  71  93 CALM      30.01F
NEW YORK       MOCLDY    59  39  47 NW18G26   30.13R
NEWARK         PTCLDY    59  39  47 NW14G24   30.15R
CHICAGO        CLEAR     58  46  64 S8        30.25R
HARTFORD       CLEAR     55  40  56 NW10G22   30.04R
BOSTON         CLEAR     56  40  55 W13G23    30.05R
DALLAS         PTCLDY    76  51  41 E7        30.14R
PHILADELPHIA   MOCLDY    61  42  49 NW14      30.17R




U.S. Dept. of Commerce
NOAA National Weather Service
1325 East West Highway
Silver Spring, MD 20910
E-mail: w-nws.webmaster@noaa.gov
Page last modified: May 16, 2007
NATIONAL WEATHER SERVICE: for Safety, for Work, for Fun - FOR LIFE